DW9151 Weather Reports


Display with metric or nautical units.
time (UTC)temp
F
wind
direction
speed
MPH
gust
MPH
rain 1hr
in
rain 24hr
in
rain mn
in
humidity
%
barometer
mb
20260503195622 45 15 7.0 14.0 0.00 0.00 0.00 72 1018.4
20260503195122 46 17 7.0 13.0 0.00 0.00 0.00 72 1018.4
20260503194122 46 10 6.0 10.0 0.00 0.00 0.00 71 1018.4
20260503193623 46 13 5.0 12.0 0.00 0.00 0.00 71 1018.4
20260503193123 46 12 5.0 10.0 0.00 0.00 0.00 70 1018.4
20260503192622 46 12 5.0 9.0 0.00 0.00 0.00 70 1018.4
20260503192122 46 14 5.0 8.0 0.00 0.00 0.00 70 1018.3
20260503191622 46 15 5.0 10.0 0.00 0.00 0.00 69 1018.3
20260503191122 46 12 5.0 9.0 0.00 0.00 0.00 69 1018.3
20260503190622 46 10 5.0 9.0 0.00 0.00 0.00 69 1018.2
20260503190122 46 13 3.0 7.0 0.00 0.00 0.00 69 1018.1
20260503185622 46 14 3.0 8.0 0.00 0.00 0.00 69 1018.1
20260503185123 46 13 3.0 6.0 0.00 0.00 0.00 69 1018.0
20260503183623 46 14 3.0 5.0 0.00 0.00 0.00 70 1017.8
20260503183122 46 15 3.0 6.0 0.00 0.00 0.00 69 1017.8
20260503182622 46 14 3.0 7.0 0.00 0.00 0.00 69 1017.7
20260503182122 46 12 3.0 6.0 0.00 0.00 0.00 69 1017.6
20260503181622 46 11 3.0 5.0 0.00 0.00 0.00 69 1017.6
20260503181122 46 10 5.0 7.0 0.00 0.00 0.00 69 1017.7
20260503180622 46 12 4.0 6.0 0.00 0.00 0.00 69 1017.8
20260503180122 46 13 3.0 5.0 0.00 0.00 0.00 69 1017.7
20260503175622 46 12 3.0 7.0 0.00 0.00 0.00 69 1017.7
20260503174622 47 12 3.0 6.0 0.00 0.00 0.00 68 1017.7
20260503174122 47 13 3.0 6.0 0.00 0.00 0.00 68 1017.7
20260503173622 47 16 3.0 8.0 0.00 0.00 0.00 69 1017.7
20260503173122 47 19 3.0 6.0 0.00 0.00 0.00 72 1017.8
20260503172622 47 19 1.0 5.0 0.00 0.00 0.00 72 1017.7
20260503171622 47 3 3.0 5.0 0.00 0.00 0.00 69 1017.7
20260503171123 47 9 3.0 6.0 0.00 0.00 0.00 67 1017.8
20260503170122 47 18 2.0 5.0 0.00 0.00 0.00 70 1017.9
20260503150622 49 15 5.0 9.0 0.00 0.00 0.00 69 1018.8
20260503140122 52 15 2.0 6.0 0.00 0.00 0.00 66 1018.9
20260503131122 51 15 6.0 10.0 0.00 0.00 0.00 67 1019.1
20260503130622 51 16 4.0 9.0 0.00 0.00 0.00 67 1019.2
20260503130122 52 16 5.0 9.0 0.00 0.00 0.00 68 1019.2
20260503120121 52 15 7.0 10.0 0.00 0.00 0.00 64 1019.2
20260503110122 51 16 5.0 9.0 0.00 0.00 0.00 72 1019.2
20260503100122 53 16 3.0 7.0 0.00 0.00 0.00 68 1019.4
20260503090122 52 17 3.0 6.0 0.00 0.00 0.00 69 1019.6
20260503081621 54 19 2.0 3.0 0.00 0.00 0.00 60 1020.0
20260503081121 54 17 2.0 3.0 0.00 0.00 0.00 56 1020.0
20260503080622 53 17 2.0 7.0 0.00 0.00 0.00 60 1020.2
20260503080122 54 19 3.0 6.0 0.00 0.00 0.00 40 1020.2
20260503072622 53 17 2.0 5.0 0.00 0.00 0.00 37 1020.4
20260503071621 52 16 2.0 6.0 0.00 0.00 0.00 38 1020.3
20260503071121 52 17 3.0 5.0 0.00 0.00 0.00 36 1020.4
20260503070621 51 18 3.0 6.0 0.00 0.00 0.00 44 1020.3
20260503070122 51 14 3.0 6.0 0.00 0.00 0.00 45 1020.4
20260503060122 50 18 3.0 5.0 0.00 0.00 0.00 36 1020.3
20260503055122 51 19 2.0 3.0 0.00 0.00 0.00 33 1020.3
20260503054621 52 17 2.0 5.0 0.00 0.00 0.00 32 1020.3
20260503054121 52 15 2.0 3.0 0.00 0.00 0.00 32 1020.3
20260503053621 52 21 1.0 3.0 0.00 0.00 0.00 33 1020.3
20260503053121 51 19 2.0 3.0 0.00 0.00 0.00 32 1020.3
20260503052621 51 22 2.0 5.0 0.00 0.00 0.00 33 1020.3
20260503052121 51 22 1.0 3.0 0.00 0.00 0.00 33 1020.3
20260503051622 50 16 2.0 3.0 0.00 0.00 0.00 33 1020.3
20260503051121 50 17 3.0 5.0 0.00 0.00 0.00 34 1020.4
20260503050621 50 19 2.0 3.0 0.00 0.00 0.00 34 1020.4
20260503050121 49 20 2.0 5.0 0.00 0.00 0.00 35 1020.4
20260503045621 48 17 2.0 5.0 0.00 0.00 0.00 36 1020.5
20260503045122 48 17 2.0 3.0 0.00 0.00 0.00 36 1020.6
20260503044121 47 17 1.0 3.0 0.00 0.00 0.00 38 1020.6
20260503043621 47 17 2.0 3.0 0.00 0.00 0.00 39 1020.6
20260503043121 46 13 2.0 5.0 0.00 0.00 0.00 39 1020.7
20260503042621 46 18 2.0 3.0 0.00 0.00 0.00 40 1020.7
20260503042121 45 20 2.0 3.0 0.00 0.00 0.00 40 1020.7
20260503041621 45 20 2.0 5.0 0.00 0.00 0.00 40 1020.7
20260503041121 45 18 2.0 3.0 0.00 0.00 0.00 39 1020.6
20260503040622 45 20 2.0 5.0 0.00 0.00 0.00 39 1020.6
20260503040121 45 17 2.0 6.0 0.00 0.00 0.00 39 1020.6
20260503035621 45 17 2.0 5.0 0.00 0.00 0.00 38 1020.7
20260503035121 45 19 2.0 5.0 0.00 0.00 0.00 37 1020.7
20260503034621 45 18 3.0 5.0 0.00 0.00 0.00 35 1020.7
20260503034122 45 17 2.0 3.0 0.00 0.00 0.00 34 1020.7
20260503033621 45 19 1.0 3.0 0.00 0.00 0.00 34 1020.7
20260503033121 45 17 2.0 3.0 0.00 0.00 0.00 32 1020.7
20260503032621 45 19 2.0 3.0 0.00 0.00 0.00 32 1020.8
20260503030621 45 20 1.0 3.0 0.00 0.00 0.00 34 1020.9
20260503030121 45 19 2.0 5.0 0.00 0.00 0.00 34 1021.0
20260503025621 45 19 2.0 5.0 0.00 0.00 0.00 34 1021.0
20260503025121 45 19 2.0 6.0 0.00 0.00 0.00 34 1021.0
20260503024621 45 15 2.0 5.0 0.00 0.00 0.00 34 1021.1
20260503024121 45 17 2.0 3.0 0.00 0.00 0.00 32 1021.2
20260503023621 45 18 1.0 3.0 0.00 0.00 0.00 31 1021.1
20260503023122 45 20 2.0 3.0 0.00 0.00 0.00 32 1021.3
20260503022122 45 17 2.0 3.0 0.00 0.00 0.00 34 1021.4
20260503021621 45 16 2.0 3.0 0.00 0.00 0.00 32 1021.5
20260503021122 45 18 2.0 3.0 0.00 0.00 0.00 31 1021.6
20260503020621 45 20 1.0 3.0 0.00 0.00 0.00 32 1021.7
20260503020121 45 21 2.0 5.0 0.00 0.00 0.00 35 1021.7
20260503015621 45 17 2.0 3.0 0.00 0.00 0.00 36 1021.6
20260503015121 45 20 3.0 6.0 0.00 0.00 0.00 34 1021.7
20260503014621 45 18 1.0 6.0 0.00 0.00 0.00 34 1021.7
20260503014121 45 19 3.0 5.0 0.00 0.00 0.00 35 1021.7
20260503013621 45 22 1.0 3.0 0.00 0.00 0.00 36 1021.7
20260503013121 45 18 2.0 3.0 0.00 0.00 0.00 37 1021.7
20260503012621 45 17 2.0 5.0 0.00 0.00 0.00 36 1021.7
20260503012121 45 18 2.0 3.0 0.00 0.00 0.00 35 1021.8
20260503011621 45 16 2.0 5.0 0.00 0.00 0.00 36 1021.9
20260503011121 45 20 2.0 3.0 0.00 0.00 0.00 34 1021.9
20260503010621 45 19 1.0 3.0 0.00 0.00 0.00 34 1022.0
20260503005621 46 16 1.0 3.0 0.00 0.00 0.00 31 1022.1
20260503004622 46 16 1.0 3.0 0.00 0.00 0.00 28 1022.1
20260503004121 46 17 1.0 3.0 0.00 0.00 0.00 26 1022.2
20260503003621 47 18 1.0 2.0 0.00 0.00 0.00 26 1022.3
20260503003121 47 17 1.0 3.0 0.00 0.00 0.00 26 1022.4
20260503002621 47 18 2.0 5.0 0.00 0.00 0.00 26 1022.4
20260503001620 47 13 3.0 7.0 0.00 0.00 0.00 26 1022.5
20260503001121 47 19 5.0 7.0 0.00 0.00 0.00 26 1022.5
20260503000621 47 16 3.0 5.0 0.00 0.00 0.00 26 1022.6
20260503000121 47 16 2.0 3.0 0.00 0.00 0.00 27 1022.7
20260502235623 47 17 2.0 3.0 0.00 0.00 0.00 26 1022.7
20260502235121 47 5 2.0 3.0 0.00 0.00 0.00 26 1022.8
20260502234121 47 19 2.0 3.0 0.00 0.00 0.00 28 1022.9
20260502233621 47 0 2.0 3.0 0.00 0.00 0.00 28 1022.9
20260502233121 47 8 2.0 6.0 0.00 0.00 0.00 26 1023.0
20260502232121 48 17 6.0 8.0 0.00 0.00 0.00 26 1023.0
20260502231620 48 18 5.0 8.0 0.00 0.00 0.00 27 1023.0
20260502230621 47 20 2.0 5.0 0.00 0.00 0.00 26 1023.1
20260502230121 47 16 2.0 3.0 0.00 0.00 0.00 25 1023.2
20260502225621 47 17 3.0 8.0 0.00 0.00 0.00 26 1023.3
20260502225120 47 17 2.0 6.0 0.00 0.00 0.00 26 1023.3
20260502224621 47 17 3.0 6.0 0.00 0.00 0.00 27 1023.3
20260502223621 47 17 3.0 5.0 0.00 0.00 0.00 27 1023.3
20260502222621 47 19 2.0 3.0 0.00 0.00 0.00 29 1023.5
20260502222120 47 14 2.0 3.0 0.00 0.00 0.00 28 1023.5
20260502221621 47 13 2.0 3.0 0.00 0.00 0.00 30 1023.5
20260502220620 47 23 2.0 3.0 0.00 0.00 0.00 32 1023.5
20260502220121 47 20 2.0 3.0 0.00 0.00 0.00 32 1023.6
20260502215620 47 20 2.0 3.0 0.00 0.00 0.00 31 1023.6
20260502215121 47 4 2.0 3.0 0.00 0.00 0.00 32 1023.5
20260502214621 47 18 2.0 3.0 0.00 0.00 0.00 34 1023.5
20260502214121 47 17 2.0 3.0 0.00 0.00 0.00 34 1023.5
20260502213621 47 6 2.0 3.0 0.00 0.00 0.00 34 1023.6
20260502213121 47 17 2.0 3.0 0.00 0.00 0.00 33 1023.6
20260502212621 47 20 2.0 3.0 0.00 0.00 0.00 34 1023.6
20260502212120 47 16 2.0 3.0 0.00 0.00 0.00 34 1023.7
20260502211120 47 15 2.0 3.0 0.00 0.00 0.00 35 1023.8
20260502210621 47 14 2.0 3.0 0.00 0.00 0.00 33 1023.8
20260502210122 47 19 3.0 6.0 0.00 0.00 0.00 30 1023.9
20260502205621 47 18 2.0 5.0 0.00 0.00 0.00 34 1023.8
20260502205120 47 19 2.0 3.0 0.00 0.00 0.00 36 1023.9
20260502204621 47 17 3.0 5.0 0.00 0.00 0.00 30 1023.9
20260502204121 47 17 2.0 5.0 0.00 0.00 0.00 30 1023.9
20260502203120 47 13 2.0 3.0 0.00 0.00 0.00 30 1023.9
20260502202620 47 17 2.0 3.0 0.00 0.00 0.00 33 1024.0
20260502202121 47 19 2.0 3.0 0.00 0.00 0.00 31 1023.9
20260502201120 47 17 2.0 3.0 0.00 0.00 0.00 34 1024.0
20260502200621 47 19 2.0 3.0 0.00 0.00 0.00 30 1024.0
20260502200121 47 19 2.0 3.0 0.00 0.00 0.00 31 1024.0